Flag for Jordan Weather past 2 weeks in Zarqa, Jordan

Now
84 °F

Haze.


Feels Like: 82 °F
Forecast: 75 / 106 °F
Wind: No wind

Location: Amman Airport

Current Time: Aug 2, 2015 at 1:30:02 AM

Latest Report: Aug 2, 2015 at 12:00 AM


Visibility: 3 mi

Pressure: 29.89 "Hg (27.88 "Hg at 615m altitude)

Humidity: 33%

Dew point: 52 °F

Location of ZarqaLocation

Historic Weather in Zarqa — Graph

°F

Zarqa temperature yesterday

Maximum temperature yesterday: 99 °F (at 4:00 PM)
Minimum temperature yesterday: 73 °F (at 5:00 AM)
Average temperature yesterday: 87 °F

Past Weeks' High & Low Weather Summary

 TemperatureHumidityPressure
High99 °F (Jul 25, 2:00 PM)69% (Jul 28, 6:00 AM)29.92 "Hg (Jul 28, 6:00 AM)
Low68 °F (Jul 21, 6:00 AM)9% (Jul 23, 3:00 PM)29.77 "Hg (Jul 21, 3:00 PM)
Average83 °F31%29.84 "Hg
* Reported Midnight between Jul 17 and Jul 18 — Midnight between Aug 1 and Aug 2, Zarqa, Weather by CustomWeather, © 2015

Note: Actual official high and low records may vary slightly from our data, if they occured in-between our weather recording intervals... More about our weather records

Advertising

Zarqa weather history for previous 24 hours

 ConditionsComfort  
Time TempWeatherWind HumidityBarometerVisibility
12:00 AM
Sun, Aug 2
84 °FHaze.No wind33%29.89 "Hg3 mi
11:00 PM
Sat, Aug 1
84 °FHaze.No wind33%29.89 "Hg3 mi
10:00 PM86 °FHaze.No wind29%29.89 "Hg3 mi
9:00 PM88 °FHaze.No wind27%29.89 "Hg3 mi
8:00 PM90 °FHaze.No wind27%29.89 "Hg3 mi
7:00 PM91 °FHaze.7 mph26%29.86 "Hg3 mi
6:00 PM97 °FHaze.7 mph18%29.86 "Hg3 mi
5:00 PM99 °FHaze.9 mph16%29.86 "Hg3 mi
4:00 PM99 °FHaze.9 mph14%29.86 "Hg3 mi
3:00 PM97 °FHaze.9 mph17%29.86 "Hg3 mi
2:00 PM97 °FHaze.9 mph18%29.89 "Hg2 mi
1:00 PM93 °FHaze.No wind21%29.89 "Hg2 mi
12:00 PM93 °FHaze.3 mph20%29.89 "Hg2 mi
11:00 AM93 °FHaze.9 mph20%29.89 "Hg2 mi
10:00 AM91 °FHaze.5 mph21%29.89 "Hg2 mi
9:00 AM86 °FHaze.5 mph31%29.89 "Hg2 mi
8:00 AM82 °FHaze.No wind30%29.86 "Hg2 mi
7:00 AM77 °FHaze.No wind36%29.89 "Hg2 mi
6:00 AM73 °FHaze.No wind47%29.86 "Hg2 mi
5:00 AM73 °FHaze.No wind38%29.86 "Hg3 mi
4:00 AM75 °FClear.No wind36%29.86 "Hg4 mi
2:00 AM79 °FClear.No wind28%29.86 "Hg4 mi
1:00 AM81 °FClear.No wind28%29.86 "Hg4 mi
Weather by CustomWeather, © 2015

See weather overviewHow to use our weather pages